HAWK-5C

Last updated on Sun Jun 21 2026 00:03:43 GMT+0000 (Coordinated Universal Time)

1 52754U 22057Y 26171.39803269 .00015869 00000+0 27008-3 0 9994 2 52754 97.6611 331.2719 0004806 73.7971 286.3809 15.51490259226842
UTC large
Height (km)
Speed (km/s)
/
Latitude / Longitude
Inclination (degrees)
Orbital Period (minutes)
Azimuth
Elevation
Range (km)
Doppler Factor

Next 0 passes for location: London (51.5072 / 0.1276)

No passes found over London.
HAWK-5C